EUTELSAT 7C

Last updated on Tue Sep 16 2025 00:02:49 GMT+0000 (Coordinated Universal Time)

1 44334U 19034B 25258.33794633 .00000032 00000+0 00000+0 0 9998 2 44334 0.0735 185.5319 0003124 339.4445 318.2151 1.00271088 4089
UTC large
Height (km)
Speed (km/s)
/
Latitude / Longitude
Inclination (degrees)
Orbital Period (minutes)
Azimuth
Elevation
Range (km)
Doppler Factor

Next 0 passes for location: London (51.5072 / 0.1276)

Sorry there are no passes over London.